When you browse on this site, cookies collect data to enhance your experience and personalize the content and advertising you see.
Visit our Privacy Policy to learn more. By continuing to use the site, you agree to this use of cookies and data.
  • En España
  • Lista de países
  • Para 7 días
  • Temperatura del agua
  • El tiempo en el mapa
  • Informadores
  • user-avatar
    Iniciar sesión

    Tiempo cada hora Ali Sabieh

    Hoy, 22 Octubre, Martes

    Tiempo Temperatura Precipitaciones Viento Presión Humedad
    00:00 +26°C° 0 mm 5 mps 697 mmHg 57%
    01:00 +25°C° 0 mm 4 mps 696 mmHg 57%
    02:00 +25°C° 0 mm 4 mps 696 mmHg 57%
    03:00 +25°C° 0 mm 3 mps 696 mmHg 58%
    04:00 +24°C° 0 mm 3 mps 696 mmHg 61%
    05:00 +24°C° 0 mm 3 mps 696 mmHg 63%
    06:00 +23°C° 0 mm 4 mps 697 mmHg 66%
    07:00 +25°C° 0 mm 5 mps 697 mmHg 56%
    08:00 +27°C° 0 mm 6 mps 698 mmHg 46%
    09:00 +28°C° 0 mm 7 mps 698 mmHg 36%
    10:00 +30°C° 0 mm 7 mps 698 mmHg 34%
    11:00 +32°C° 0 mm 8 mps 698 mmHg 33%
    12:00 +33°C° 0 mm 8 mps 698 mmHg 31%
    13:00 +33°C° 0 mm 8 mps 697 mmHg 30%
    14:00 +33°C° 0 mm 8 mps 696 mmHg 29%
    15:00 +33°C° 0 mm 8 mps 696 mmHg 28%
    16:00 +32°C° 0 mm 8 mps 696 mmHg 31%
    17:00 +30°C° 0 mm 7 mps 696 mmHg 35%
    18:00 +28°C° 0 mm 7 mps 696 mmHg 38%
    19:00 +28°C° 0 mm 6 mps 696 mmHg 42%
    20:00 +27°C° 0 mm 5 mps 697 mmHg 46%
    21:00 +26°C° 0 mm 5 mps 697 mmHg 50%
    22:00 +26°C° 0 mm 4 mps 697 mmHg 51%
    23:00 +26°C° 0 mm 3 mps 697 mmHg 52%

    Mañana, 23 Octubre, Miércoles

    Tiempo Temperatura Precipitaciones Viento Presión Humedad
    00:00 +25°C° 0 mm 2 mps 697 mmHg 53%
    01:00 +25°C° 0 mm 2 mps 696 mmHg 55%
    02:00 +24°C° 0 mm 2 mps 696 mmHg 57%
    03:00 +24°C° 0 mm 1 mps 695 mmHg 60%
    04:00 +23°C° 0 mm 1 mps 696 mmHg 61%
    05:00 +23°C° 0 mm 1 mps 696 mmHg 62%
    06:00 +23°C° 0 mm 1 mps 697 mmHg 63%
    07:00 +24°C° 0 mm 2 mps 697 mmHg 54%
    08:00 +26°C° 0 mm 4 mps 698 mmHg 44%
    09:00 +28°C° 0 mm 5 mps 698 mmHg 35%
    10:00 +29°C° 0 mm 6 mps 698 mmHg 33%
    11:00 +30°C° 0 mm 6 mps 698 mmHg 31%
    12:00 +32°C° 0 mm 7 mps 698 mmHg 28%
    13:00 +33°C° 0 mm 7 mps 697 mmHg 27%
    14:00 +33°C° 0 mm 8 mps 697 mmHg 26%
    15:00 +33°C° 0 mm 8 mps 696 mmHg 25%
    16:00 +32°C° 0 mm 8 mps 696 mmHg 28%
    17:00 +30°C° 0 mm 7 mps 696 mmHg 31%
    18:00 +29°C° 0 mm 7 mps 696 mmHg 34%
    19:00 +28°C° 0 mm 6 mps 696 mmHg 36%
    20:00 +27°C° 0 mm 5 mps 697 mmHg 38%
    21:00 +27°C° 0 mm 4 mps 697 mmHg 41%
    22:00 +26°C° 0 mm 4 mps 697 mmHg 44%
    23:00 +26°C° 0 mm 3 mps 697 mmHg 48%

    Pasado mañana, 24 Octubre, Jueves

    Tiempo Temperatura Precipitaciones Viento Presión Humedad
    00:00 +25°C° 0 mm 3 mps 697 mmHg 52%
    01:00 +25°C° 0 mm 2 mps 696 mmHg 55%
    02:00 +24°C° 0 mm 2 mps 696 mmHg 57%
    03:00 +24°C° 0 mm 2 mps 696 mmHg 59%
    04:00 +24°C° 0 mm 2 mps 696 mmHg 61%
    05:00 +23°C° 0 mm 2 mps 697 mmHg 63%
    06:00 +23°C° 0 mm 2 mps 697 mmHg 65%
    07:00 +25°C° 0 mm 3 mps 698 mmHg 56%
    08:00 +26°C° 0 mm 4 mps 698 mmHg 47%
    09:00 +28°C° 0 mm 5 mps 699 mmHg 38%
    10:00 +29°C° 0 mm 6 mps 699 mmHg 34%
    11:00 +32°C° 0 mm 6 mps 698 mmHg 30%
    12:00 +33°C° 0 mm 7 mps 698 mmHg 26%
    13:00 +33°C° 0 mm 7 mps 698 mmHg 25%
    14:00 +33°C° 0 mm 8 mps 697 mmHg 24%
    15:00 +34°C° 0 mm 8 mps 697 mmHg 23%
    16:00 +32°C° 0 mm 8 mps 697 mmHg 26%
    17:00 +31°C° 0 mm 8 mps 697 mmHg 30%
    18:00 +29°C° 0 mm 7 mps 697 mmHg 33%
    19:00 +28°C° 0 mm 6 mps 697 mmHg 37%
    20:00 +27°C° 0 mm 5 mps 697 mmHg 41%
    21:00 +26°C° 0 mm 4 mps 698 mmHg 44%
    22:00 +26°C° 0 mm 4 mps 697 mmHg 46%
    23:00 +25°C° 0 mm 4 mps 697 mmHg 47%

    25 Octubre, Viernes

    Tiempo Temperatura Precipitaciones Viento Presión Humedad
    00:00 +25°C° 0 mm 3 mps 697 mmHg 49%
    01:00 +25°C° 0 mm 3 mps 696 mmHg 53%
    02:00 +24°C° 0 mm 3 mps 696 mmHg 57%
    03:00 +24°C° 0 mm 3 mps 696 mmHg 60%
    04:00 +22°C° 0 mm 3 mps 696 mmHg 63%
    05:00 +22°C° 0 mm 3 mps 696 mmHg 66%
    06:00 +22°C° 0 mm 3 mps 697 mmHg 68%
    07:00 +24°C° 0 mm 3 mps 697 mmHg 60%
    08:00 +26°C° 0 mm 4 mps 698 mmHg 51%
    09:00 +27°C° 0 mm 5 mps 699 mmHg 43%
    10:00 +29°C° 0 mm 5 mps 698 mmHg 38%
    11:00 +30°C° 0 mm 5 mps 698 mmHg 33%
    12:00 +33°C° 0 mm 6 mps 698 mmHg 27%
    13:00 +33°C° 0 mm 6 mps 697 mmHg 26%
    14:00 +33°C° 0 mm 7 mps 697 mmHg 24%
    15:00 +34°C° 0 mm 7 mps 696 mmHg 22%
    16:00 +32°C° 0 mm 7 mps 696 mmHg 26%
    17:00 +30°C° 0 mm 6 mps 696 mmHg 30%
    18:00 +28°C° 0 mm 6 mps 696 mmHg 34%
    19:00 +28°C° 0 mm 5 mps 696 mmHg 38%
    20:00 +27°C° 0 mm 5 mps 697 mmHg 42%
    21:00 +26°C° 0 mm 4 mps 697 mmHg 47%
    22:00 +25°C° 0 mm 4 mps 697 mmHg 52%
    23:00 +25°C° 0 mm 4 mps 696 mmHg 58%

    26 Octubre, Sábado

    Tiempo Temperatura Precipitaciones Viento Presión Humedad
    00:00 +23°C° 0 mm 4 mps 696 mmHg 64%
    01:00 +24°C° 0 mm 3 mps 696 mmHg 67%
    02:00 +22°C° 0 mm 3 mps 696 mmHg 70%
    03:00 +22°C° 0 mm 3 mps 695 mmHg 73%
    04:00 +21°C° 0 mm 3 mps 696 mmHg 74%
    05:00 +21°C° 0 mm 2 mps 696 mmHg 76%
    06:00 +21°C° 0 mm 2 mps 696 mmHg 78%
    07:00 +22°C° 0 mm 3 mps 697 mmHg 68%
    08:00 +25°C° 0 mm 3 mps 698 mmHg 58%
    09:00 +27°C° 0 mm 4 mps 698 mmHg 48%
    10:00 +28°C° 0 mm 4 mps 698 mmHg 41%
    11:00 +30°C° 0 mm 5 mps 697 mmHg 34%
    12:00 +33°C° 0 mm 5 mps 697 mmHg 27%
    13:00 +33°C° 0 mm 6 mps 697 mmHg 26%
    14:00 +34°C° 0 mm 6 mps 696 mmHg 25%
    15:00 +34°C° 0 mm 6 mps 696 mmHg 24%
    16:00 +33°C° 0 mm 6 mps 695 mmHg 30%
    17:00 +30°C° 0 mm 6 mps 695 mmHg 36%
    18:00 +29°C° 0 mm 6 mps 695 mmHg 42%
    19:00 +28°C° 0 mm 5 mps 696 mmHg 46%
    20:00 +27°C° 0 mm 5 mps 696 mmHg 50%
    21:00 +26°C° 0 mm 5 mps 696 mmHg 54%
    22:00 +26°C° 0 mm 4 mps 696 mmHg 57%
    23:00 +25°C° 0 mm 3 mps 696 mmHg 60%

    27 Octubre, Domingo

    Tiempo Temperatura Precipitaciones Viento Presión Humedad
    00:00 +25°C° 0 mm 3 mps 695 mmHg 62%
    01:00 +24°C° 0 mm 2 mps 695 mmHg 64%
    02:00 +24°C° 0 mm 2 mps 695 mmHg 67%
    03:00 +23°C° 0 mm 2 mps 694 mmHg 69%
    04:00 +23°C° 0 mm 2 mps 695 mmHg 70%
    05:00 +23°C° 0 mm 2 mps 695 mmHg 71%
    06:00 +23°C° 0 mm 2 mps 696 mmHg 71%
    07:00 +24°C° 0 mm 3 mps 696 mmHg 63%
    08:00 +26°C° 0 mm 3 mps 697 mmHg 55%
    09:00 +28°C° 0 mm 4 mps 698 mmHg 47%
    10:00 +29°C° 0 mm 4 mps 697 mmHg 42%
    11:00 +32°C° 0 mm 5 mps 697 mmHg 36%
    12:00 +33°C° 0 mm 5 mps 696 mmHg 31%
    13:00 +33°C° 0 mm 6 mps 696 mmHg 29%
    14:00 +34°C° 0 mm 7 mps 695 mmHg 27%
    15:00 +34°C° 0 mm 7 mps 695 mmHg 26%
    16:00 +33°C° 0 mm 7 mps 695 mmHg 30%
    17:00 +30°C° 0 mm 7 mps 694 mmHg 33%
    18:00 +28°C° 0 mm 7 mps 694 mmHg 37%
    19:00 +28°C° 0 mm 6 mps 695 mmHg 41%
    20:00 +27°C° 0 mm 5 mps 695 mmHg 45%
    21:00 +26°C° 0 mm 5 mps 695 mmHg 49%
    22:00 +26°C° 0 mm 4 mps 695 mmHg 50%
    23:00 +25°C° 0 mm 3 mps 695 mmHg 51%

    28 Octubre, Lunes

    Tiempo Temperatura Precipitaciones Viento Presión Humedad
    00:00 +25°C° 0 mm 3 mps 695 mmHg 52%
    01:00 +24°C° 0 mm 3 mps 694 mmHg 55%
    02:00 +24°C° 0 mm 2 mps 694 mmHg 58%
    03:00 +23°C° 0 mm 2 mps 694 mmHg 62%
    04:00 +23°C° 0 mm 2 mps 694 mmHg 63%
    05:00 +23°C° 0 mm 2 mps 694 mmHg 64%
    06:00 +21°C° 0 mm 2 mps 695 mmHg 64%
    07:00 +24°C° 0 mm 3 mps 695 mmHg 56%
    08:00 +26°C° 0 mm 3 mps 696 mmHg 47%
    09:00 +27°C° 0 mm 4 mps 697 mmHg 39%
    10:00 +29°C° 0 mm 5 mps 697 mmHg 34%
    11:00 +30°C° 0 mm 5 mps 696 mmHg 29%
    12:00 +33°C° 0 mm 6 mps 696 mmHg 24%
    13:00 +33°C° 0 mm 6 mps 696 mmHg 24%
    14:00 +34°C° 0 mm 7 mps 695 mmHg 25%
    15:00 +34°C° 0 mm 7 mps 695 mmHg 25%
    16:00 +32°C° 0 mm 7 mps 695 mmHg 30%
    17:00 +30°C° 0 mm 7 mps 695 mmHg 34%
    18:00 +29°C° 0 mm 6 mps 695 mmHg 38%
    19:00 +28°C° 0 mm 5 mps 695 mmHg 43%
    20:00 +27°C° 0 mm 5 mps 695 mmHg 47%
    21:00 +26°C° 0 mm 4 mps 695 mmHg 52%
    22:00 +25°C° 0 mm 3 mps 695 mmHg 55%
    23:00 +25°C° 0 mm 3 mps 695 mmHg 58%
    Mostrar más